Weather History for Slayton, MN

Change the Weather History Date:

Sunday, October 28, 2012

  Actual Average (KOTG) Record (KOTG)
Temperature  
Mean Temperature 38 °F -  
Max Temperature 48 °F 49 °F 77 °F (1983)
Min Temperature 29 °F 32 °F 12 °F (1976)
Degree Days  
Heating Degree Days 26    
Moisture  
Dew Point 29 °F    
Average Humidity 75    
Maximum Humidity 92    
Minimum Humidity 49    
Precipitation  
Precipitation 0.00 in - - ()
Sea Level Pressure  
Sea Level Pressure 30.24 in    
Wind  
Wind Speed 8 mph (SSE)    
Max Wind Speed 18 mph    
Max Gust Speed 24 mph    
Visibility 10 miles    
Events      
Averages and records for this station are not official NWS values.
T = Trace of Precipitation, MM = Missing Value Source: NWS Daily Summary

Daily Weather History Graph

Daily Weather History Graph

Search for Another Location

Airport:

Trip Planner

Search our weather history database for the weather conditions in past years. The results will help you decide how hot, cold, wet, or windy it might be!

Date:

Astronomy

Oct. 28, 2012 Rise Set
Actual Time 7:54 AM CDT 6:18 PM CDT
Civil Twilight 7:25 AM CDT 6:47 PM CDT
Nautical Twilight 6:51 AM CDT 7:21 PM CDT
Astronomical Twilight 6:17 AM CDT 7:55 PM CDT
Moon 5:36 PM CDT (10/28) 6:48 AM CDT (10/28)
Length of Visible Light 11h 22m
Length of Day
10h 23m
Waxing Gibbous, 99% of the Moon is Illuminated
Oct 28
Waxing Gibbous
Oct 29
Full
Nov 6
Last Quarter
Nov 13
New
Nov 20
First Quarter

Hourly Weather History & Observations

Time (CDT) Temp. Windchill Dew Point Humidity Pressure Visibility Wind Dir Wind Speed Gust Speed Precip Events Conditions
12:14 AM 31.1 °F 26.4 °F 25.5 °F 80% 30.28 in 10.0 mi South 4.6 mph - N/A   Overcast
12:34 AM 30.6 °F - 26.1 °F 83% 30.28 in 10.0 mi Calm Calm - N/A   Overcast
12:54 AM 30.4 °F 25.6 °F 26.6 °F 86% 30.28 in 10.0 mi SSE 4.6 mph - N/A   Overcast
1:14 AM 30.2 °F 25.4 °F 26.6 °F 86% 30.28 in 10.0 mi SSE 4.6 mph - N/A   Overcast
1:34 AM 30.7 °F 24.9 °F 27.3 °F 87% 30.28 in 10.0 mi SSE 5.8 mph - N/A   Overcast
1:54 AM 31.1 °F 25.4 °F 27.5 °F 87% 30.28 in 10.0 mi SSE 5.8 mph - N/A   Overcast
2:15 AM 31.1 °F 25.4 °F 28.0 °F 88% 30.27 in 10.0 mi SSE 5.8 mph - N/A   Overcast
2:34 AM 31.6 °F 25.1 °F 28.2 °F 87% 30.27 in 10.0 mi SSE 6.9 mph - N/A   Overcast
2:54 AM 31.8 °F 25.4 °F 28.4 °F 87% 30.28 in 10.0 mi SSE 6.9 mph - N/A   Overcast
3:14 AM 32.0 °F 26.4 °F 28.8 °F 88% 30.27 in 10.0 mi SSE 5.8 mph - N/A   Overcast
3:34 AM 32.0 °F 26.4 °F 28.9 °F 88% 30.27 in 10.0 mi SSE 5.8 mph - N/A   Overcast
3:55 AM 32.0 °F 24.8 °F 29.1 °F 89% 30.26 in 10.0 mi SSE 8.1 mph - N/A   Overcast
4:14 AM 32.2 °F 25.0 °F 29.1 °F 88% 30.26 in 10.0 mi SSE 8.1 mph - N/A   Overcast
4:34 AM 32.2 °F 24.4 °F 28.8 °F 87% 30.26 in 10.0 mi SSE 9.2 mph - N/A   Overcast
4:54 AM 32.2 °F 24.4 °F 28.8 °F 87% 30.26 in 10.0 mi SSE 9.2 mph - N/A   Overcast
5:14 AM 32.0 °F 24.8 °F 28.9 °F 88% 30.26 in 10.0 mi SSE 8.1 mph - N/A   Overcast
5:35 AM 32.0 °F 24.8 °F 28.8 °F 88% 30.26 in 10.0 mi SSE 8.1 mph - N/A   Overcast
5:54 AM 32.0 °F 24.8 °F 28.9 °F 88% 30.26 in 10.0 mi SSE 8.1 mph - N/A   Overcast
6:15 AM 32.0 °F 25.6 °F 28.6 °F 87% 30.26 in 10.0 mi SSE 6.9 mph - N/A   Overcast
6:34 AM 32.0 °F 25.6 °F 28.4 °F 87% 30.26 in 10.0 mi SSE 6.9 mph - N/A   Overcast
6:54 AM 32.0 °F 25.6 °F 28.4 °F 87% 30.26 in 10.0 mi SSE 6.9 mph - N/A   Overcast
7:14 AM 31.6 °F 25.1 °F 28.4 °F 88% 30.26 in 10.0 mi SSE 6.9 mph - N/A   Overcast
7:34 AM 30.9 °F 24.3 °F 27.9 °F 88% 30.27 in 10.0 mi SSE 6.9 mph - N/A   Mostly Cloudy
7:54 AM 29.8 °F 23.0 °F 27.3 °F 90% 30.27 in 10.0 mi SSE 6.9 mph - N/A   Scattered Clouds
8:14 AM 29.5 °F 21.8 °F 27.3 °F 92% 30.27 in 10.0 mi SSE 8.1 mph - N/A   Clear
8:34 AM 29.7 °F 22.0 °F 27.3 °F 91% 30.28 in 10.0 mi SSE 8.1 mph - N/A   Clear
8:54 AM 30.6 °F 24.7 °F 28.2 °F 91% 30.28 in 10.0 mi SSE 5.8 mph - N/A   Clear
9:34 AM 32.9 °F 24.7 °F 29.1 °F 86% 30.28 in 10.0 mi SSE 10.4 mph - N/A   Clear
9:55 AM 34.7 °F 26.9 °F 29.3 °F 81% 30.28 in 10.0 mi SSE 10.4 mph - N/A   Clear
10:14 AM 36.7 °F 28.4 °F 29.3 °F 75% 30.28 in 10.0 mi SSE 12.7 mph - N/A   Scattered Clouds
10:34 AM 38.1 °F 30.2 °F 29.5 °F 71% 30.27 in 10.0 mi SSE 12.7 mph - N/A   Clear
10:54 AM 39.6 °F 31.7 °F 28.9 °F 66% 30.27 in 10.0 mi South 13.8 mph - N/A   Clear
11:14 AM 40.3 °F 33.4 °F 28.2 °F 62% 30.27 in 10.0 mi South 11.5 mph 18.4 mph N/A   Clear
11:34 AM 41.5 °F 33.8 °F 28.8 °F 60% 30.26 in 10.0 mi South 15.0 mph 18.4 mph N/A   Clear
12:15 PM 42.8 °F 34.8 °F 28.9 °F 58% 30.25 in 10.0 mi South 17.3 mph 23.0 mph N/A   Clear
12:35 PM 43.0 °F 35.4 °F 28.9 °F 58% 30.24 in 10.0 mi South 16.1 mph 23.0 mph N/A   Clear
12:54 PM 44.8 °F 37.1 °F 29.8 °F 56% 30.24 in 10.0 mi South 18.4 mph 21.9 mph N/A   Clear
1:15 PM 44.1 °F 36.8 °F 29.5 °F 57% 30.24 in 10.0 mi South 16.1 mph - N/A   Scattered Clouds
1:34 PM 45.1 °F 38.4 °F 29.5 °F 54% 30.23 in 10.0 mi South 15.0 mph 24.2 mph N/A   Mostly Cloudy
1:55 PM 44.6 °F 37.8 °F 29.5 °F 55% 30.22 in 10.0 mi SSE 15.0 mph 21.9 mph N/A   Overcast
2:14 PM 45.1 °F 38.4 °F 29.7 °F 55% 30.22 in 10.0 mi South 15.0 mph 19.6 mph N/A   Overcast
2:34 PM 45.9 °F 39.7 °F 29.7 °F 53% 30.21 in 10.0 mi South 13.8 mph 20.7 mph N/A   Overcast
2:55 PM 45.9 °F 39.4 °F 29.3 °F 52% 30.20 in 10.0 mi South 15.0 mph 20.7 mph N/A   Mostly Cloudy
3:14 PM 47.3 °F - 28.8 °F 49% 30.20 in 10.0 mi South 15.0 mph - N/A   Scattered Clouds
3:34 PM 47.8 °F - 29.8 °F 50% 30.20 in 10.0 mi SSE 17.3 mph 23.0 mph N/A   Mostly Cloudy
3:54 PM 48.0 °F - 30.0 °F 50% 30.19 in 10.0 mi SSE 16.1 mph 20.7 mph N/A   Mostly Cloudy
4:14 PM 46.6 °F - 29.3 °F 51% 30.19 in 10.0 mi South 12.7 mph 20.7 mph N/A   Overcast
4:34 PM 46.2 °F 40.1 °F 29.8 °F 53% 30.19 in 10.0 mi SSE 13.8 mph - N/A   Overcast
4:54 PM 46.0 °F 39.9 °F 30.0 °F 54% 30.19 in 10.0 mi SSE 13.8 mph - N/A   Overcast
5:14 PM 45.7 °F 38.8 °F 30.0 °F 54% 30.18 in 10.0 mi SSE 16.1 mph - N/A   Overcast
5:34 PM 45.1 °F 39.5 °F 31.1 °F 58% 30.19 in 10.0 mi SSE 11.5 mph - N/A   Overcast
5:54 PM 44.2 °F 38.0 °F 30.9 °F 60% 30.19 in 10.0 mi SSE 12.7 mph - N/A   Overcast
6:14 PM 43.3 °F 37.7 °F 31.3 °F 62% 30.20 in 10.0 mi SSE 10.4 mph - N/A   Overcast
6:34 PM 42.4 °F 36.5 °F 31.1 °F 64% 30.20 in 10.0 mi SSE 10.4 mph - N/A   Mostly Cloudy
6:55 PM 41.4 °F 34.3 °F 31.1 °F 67% 30.20 in 10.0 mi SSE 12.7 mph - N/A   Scattered Clouds
7:14 PM 39.4 °F 32.3 °F 31.1 °F 72% 30.20 in 10.0 mi SSE 11.5 mph - N/A   Scattered Clouds
7:35 PM 40.1 °F 32.7 °F 31.1 °F 70% 30.20 in 10.0 mi SSE 12.7 mph - N/A   Mostly Cloudy
7:54 PM 39.6 °F 32.5 °F 31.1 °F 72% 30.20 in 10.0 mi SE 11.5 mph - N/A   Mostly Cloudy
8:14 PM 38.7 °F 31.4 °F 30.9 °F 74% 30.20 in 10.0 mi SSE 11.5 mph - N/A   Scattered Clouds
8:54 PM 36.9 °F 30.1 °F 30.7 °F 79% 30.21 in 10.0 mi SE 9.2 mph - N/A   Clear
9:15 PM 35.8 °F 28.3 °F 30.7 °F 82% 30.21 in 10.0 mi SSE 10.4 mph - N/A   Clear
9:34 PM 35.1 °F 27.4 °F 30.4 °F 83% 30.21 in 10.0 mi SE 10.4 mph - N/A   Clear
9:55 PM 35.1 °F 27.9 °F 30.2 °F 82% 30.21 in 10.0 mi SE 9.2 mph - N/A   Clear
10:14 PM 34.9 °F 27.1 °F 30.2 °F 83% 30.21 in 10.0 mi SE 10.4 mph - N/A   Clear
10:34 PM 34.9 °F 27.7 °F 30.4 °F 84% 30.22 in 10.0 mi SE 9.2 mph - N/A   Mostly Cloudy
10:55 PM 35.1 °F 27.4 °F 30.6 °F 84% 30.22 in 10.0 mi SSE 10.4 mph - N/A   Mostly Cloudy
11:15 PM 34.7 °F 26.9 °F 30.4 °F 84% 30.22 in 10.0 mi SSE 10.4 mph - N/A   Mostly Cloudy
11:54 PM 35.2 °F 27.6 °F 30.7 °F 84% 30.22 in 10.0 mi SSE 10.4 mph - N/A   Mostly Cloudy